| time (UTC) | temp F | wind direction | speed knots | gust knots | rain 1hr in | rain 24hr in | rain mn in | humidity % | barometer mb |
| 20260504100502 | 53 | 226 | 3.5 | 6.1 | 0.00 | 0.00 | 0.00 | 53 | 1001.2 |
| 20260504082007 | 52 | 229 | 0.9 | 3.5 | 0.00 | 0.00 | 0.00 | 55 | 1002.4 |
| 20260504081527 | 51 | 210 | 0.9 | 2.6 | 0.00 | 0.00 | 0.00 | 56 | 1002.5 |
| 20260504081007 | 51 | 226 | 1.7 | 2.6 | 0.00 | 0.00 | 0.00 | 56 | 1002.5 |
| 20260504080510 | 51 | 223 | 0.9 | 2.6 | 0.00 | 0.00 | 0.00 | 56 | 1002.5 |
| 20260504050506 | 47 | 184 | 0.0 | 0.0 | 0.00 | 0.00 | 0.00 | 66 | 1005.1 |
| 20260504050018 | 47 | 184 | 0.0 | 0.0 | 0.00 | 0.00 | 0.00 | 66 | 1005.1 |
| 20260504045511 | 47 | 184 | 0.0 | 0.0 | 0.00 | 0.00 | 0.00 | 67 | 1005.1 |
| 20260504045006 | 47 | 184 | 0.0 | 0.9 | 0.00 | 0.00 | 0.00 | 66 | 1005.3 |
| 20260504044526 | 48 | 133 | 0.0 | 0.9 | 0.00 | 0.00 | 0.00 | 67 | 1005.3 |
| 20260504044011 | 48 | 133 | 0.0 | 0.9 | 0.00 | 0.00 | 0.00 | 66 | 1005.4 |
| 20260504043509 | 47 | 141 | 0.0 | 0.0 | 0.00 | 0.00 | 0.00 | 66 | 1005.4 |
| 20260504043028 | 47 | 141 | 0.0 | 0.0 | 0.00 | 0.00 | 0.00 | 66 | 1005.5 |
| 20260504042509 | 47 | 141 | 0.0 | 0.0 | 0.00 | 0.00 | 0.00 | 65 | 1005.6 |
| 20260504042010 | 48 | 141 | 0.0 | 0.0 | 0.00 | 0.00 | 0.00 | 65 | 1005.6 |
| 20260504041530 | 48 | 141 | 0.0 | 0.9 | 0.00 | 0.00 | 0.00 | 64 | 1005.6 |
| 20260504041011 | 49 | 141 | 0.0 | 0.9 | 0.00 | 0.00 | 0.00 | 63 | 1005.7 |
| 20260504040513 | 49 | 139 | 0.0 | 0.9 | 0.00 | 0.00 | 0.00 | 62 | 1005.8 |
| 20260504040017 | 49 | 139 | 0.0 | 0.0 | 0.00 | 0.00 | 0.00 | 62 | 1005.9 |
| 20260504035507 | 50 | 139 | 0.0 | 0.0 | 0.00 | 0.00 | 0.00 | 59 | 1005.9 |
| 20260504035008 | 50 | 139 | 0.0 | 0.9 | 0.00 | 0.00 | 0.00 | 60 | 1006.1 |
| 20260504034520 | 50 | 139 | 0.0 | 0.9 | 0.00 | 0.00 | 0.00 | 65 | 1006.2 |
| 20260504034007 | 50 | 141 | 0.0 | 0.9 | 0.00 | 0.00 | 0.00 | 64 | 1006.3 |
| 20260504033508 | 50 | 149 | 0.0 | 0.0 | 0.00 | 0.00 | 0.00 | 60 | 1006.3 |
| 20260504033025 | 51 | 149 | 0.0 | 0.0 | 0.00 | 0.00 | 0.00 | 55 | 1006.4 |
| 20260504032509 | 52 | 149 | 0.0 | 0.0 | 0.00 | 0.00 | 0.00 | 53 | 1006.4 |
| 20260504032015 | 52 | 149 | 0.0 | 0.0 | 0.00 | 0.00 | 0.00 | 51 | 1006.4 |
| 20260504031528 | 52 | 149 | 0.0 | 0.0 | 0.00 | 0.00 | 0.00 | 50 | 1006.4 |
| 20260504031010 | 52 | 149 | 0.0 | 0.0 | 0.00 | 0.00 | 0.00 | 49 | 1006.5 |
| 20260504030511 | 52 | 149 | 0.0 | 0.0 | 0.00 | 0.00 | 0.00 | 52 | 1006.5 |
| 20260504030038 | 52 | 149 | 0.0 | 0.0 | 0.00 | 0.00 | 0.00 | 52 | 1006.4 |
| 20260504025510 | 52 | 149 | 0.0 | 0.0 | 0.00 | 0.00 | 0.00 | 52 | 1006.4 |
| 20260504025010 | 52 | 149 | 0.0 | 1.7 | 0.00 | 0.00 | 0.00 | 53 | 1006.5 |
| 20260504024519 | 53 | 149 | 0.0 | 1.7 | 0.00 | 0.00 | 0.00 | 56 | 1006.4 |
| 20260504024007 | 54 | 150 | 0.9 | 1.7 | 0.00 | 0.00 | 0.00 | 54 | 1006.4 |
| 20260504023507 | 55 | 251 | 0.0 | 0.0 | 0.00 | 0.00 | 0.00 | 52 | 1006.4 |
| 20260504023024 | 56 | 277 | 0.0 | 0.0 | 0.00 | 0.00 | 0.00 | 43 | 1006.4 |
| 20260504022503 | 56 | 277 | 0.0 | 0.0 | 0.00 | 0.00 | 0.00 | 43 | 1006.4 |
| 20260504022004 | 57 | 277 | 0.0 | 0.0 | 0.00 | 0.00 | 0.00 | 43 | 1006.4 |
| 20260504021504 | 57 | 277 | 0.0 | 0.0 | 0.00 | 0.00 | 0.00 | 41 | 1006.4 |
| 20260504021003 | 57 | 277 | 0.0 | 0.0 | 0.00 | 0.00 | 0.00 | 40 | 1006.4 |
| 20260504020502 | 58 | 277 | 0.0 | 0.0 | 0.00 | 0.00 | 0.00 | 40 | 1006.4 |
| 20260504020012 | 59 | 277 | 0.0 | 0.0 | 0.00 | 0.00 | 0.00 | 40 | 1006.5 |
| 20260504015502 | 59 | 277 | 0.0 | 0.0 | 0.00 | 0.00 | 0.00 | 38 | 1006.5 |
| 20260504015006 | 60 | 277 | 0.0 | 0.0 | 0.00 | 0.00 | 0.00 | 37 | 1006.5 |
| 20260504014516 | 60 | 277 | 0.0 | 0.0 | 0.00 | 0.00 | 0.00 | 37 | 1006.5 |
| 20260504014009 | 61 | 277 | 0.0 | 0.0 | 0.00 | 0.00 | 0.00 | 36 | 1006.5 |
| 20260504013508 | 62 | 278 | 0.0 | 0.9 | 0.00 | 0.00 | 0.00 | 35 | 1006.5 |
| 20260504013019 | 63 | 278 | 0.0 | 0.9 | 0.00 | 0.00 | 0.00 | 34 | 1006.5 |
| 20260504012510 | 63 | 283 | 0.0 | 0.9 | 0.00 | 0.00 | 0.00 | 33 | 1006.5 |
| 20260504012015 | 64 | 283 | 0.0 | 0.9 | 0.00 | 0.00 | 0.00 | 33 | 1006.5 |
| 20260504011504 | 64 | 283 | 0.0 | 1.7 | 0.00 | 0.00 | 0.00 | 33 | 1006.5 |
| 20260504011005 | 65 | 292 | 0.0 | 1.7 | 0.00 | 0.00 | 0.00 | 32 | 1006.5 |
| 20260504010501 | 65 | 282 | 0.0 | 4.3 | 0.00 | 0.00 | 0.00 | 32 | 1006.5 |
| 20260504010009 | 66 | 291 | 0.9 | 6.1 | 0.00 | 0.00 | 0.00 | 32 | 1006.5 |
| 20260504005504 | 66 | 307 | 3.5 | 6.1 | 0.00 | 0.00 | 0.00 | 31 | 1006.6 |
| 20260504005003 | 67 | 304 | 2.6 | 5.2 | 0.00 | 0.00 | 0.00 | 32 | 1006.6 |
| 20260504004519 | 67 | 293 | 3.5 | 8.7 | 0.00 | 0.00 | 0.00 | 31 | 1006.6 |
| 20260504004011 | 67 | 297 | 3.5 | 8.7 | 0.00 | 0.00 | 0.00 | 31 | 1006.7 |
| 20260504003506 | 68 | 295 | 3.5 | 8.7 | 0.00 | 0.00 | 0.00 | 30 | 1006.7 |
| 20260504003027 | 68 | 298 | 5.2 | 8.7 | 0.00 | 0.00 | 0.00 | 29 | 1006.6 |
| 20260504002506 | 68 | 301 | 6.1 | 8.7 | 0.00 | 0.00 | 0.00 | 29 | 1006.7 |
| 20260504002010 | 69 | 302 | 6.1 | 9.6 | 0.00 | 0.00 | 0.00 | 28 | 1006.6 |
| 20260504001519 | 69 | 295 | 7.0 | 10.4 | 0.00 | 0.00 | 0.00 | 28 | 1006.5 |
| 20260504001008 | 69 | 295 | 6.1 | 10.4 | 0.00 | 0.00 | 0.00 | 29 | 1006.6 |
| 20260504000508 | 69 | 294 | 5.2 | 7.8 | 0.00 | 0.00 | 0.00 | 29 | 1006.5 |
| 20260504000025 | 69 | 268 | 3.5 | 9.6 | 0.00 | 0.00 | 0.00 | 29 | 1006.5 |
| 20260503235504 | 69 | 280 | 3.5 | 9.6 | 0.00 | 0.00 | 0.00 | 29 | 1006.6 |
| 20260503235004 | 70 | 278 | 6.1 | 9.6 | 0.00 | 0.00 | 0.00 | 29 | 1006.6 |
| 20260503234525 | 70 | 293 | 4.3 | 8.7 | 0.00 | 0.00 | 0.00 | 29 | 1006.8 |
| 20260503234005 | 70 | 299 | 5.2 | 9.6 | 0.00 | 0.00 | 0.00 | 28 | 1006.7 |
| 20260503233504 | 70 | 319 | 5.2 | 12.2 | 0.00 | 0.00 | 0.00 | 28 | 1006.7 |
| 20260503233012 | 70 | 290 | 6.1 | 13.9 | 0.00 | 0.00 | 0.00 | 28 | 1006.7 |
| 20260503232506 | 70 | 298 | 6.1 | 13.9 | 0.00 | 0.00 | 0.00 | 28 | 1006.7 |
| 20260503232006 | 70 | 309 | 6.1 | 10.4 | 0.00 | 0.00 | 0.00 | 30 | 1006.6 |
| 20260503231519 | 70 | 297 | 5.2 | 12.2 | 0.00 | 0.00 | 0.00 | 30 | 1006.7 |
| 20260503231013 | 70 | 337 | 7.0 | 14.8 | 0.00 | 0.00 | 0.00 | 30 | 1006.7 |
| 20260503230512 | 70 | 319 | 9.6 | 13.9 | 0.00 | 0.00 | 0.00 | 27 | 1006.7 |
| 20260503230022 | 70 | 283 | 6.1 | 10.4 | 0.00 | 0.00 | 0.00 | 29 | 1006.9 |
| 20260503225511 | 70 | 294 | 6.1 | 13.0 | 0.00 | 0.00 | 0.00 | 27 | 1006.9 |
| 20260503225012 | 71 | 326 | 6.1 | 13.0 | 0.00 | 0.00 | 0.00 | 31 | 1006.9 |
| 20260503224527 | 71 | 289 | 8.7 | 13.0 | 0.00 | 0.00 | 0.00 | 29 | 1006.8 |
| 20260503224002 | 71 | 308 | 8.7 | 13.0 | 0.00 | 0.00 | 0.00 | 28 | 1006.7 |
| 20260503223514 | 71 | 291 | 5.2 | 12.2 | 0.00 | 0.00 | 0.00 | 28 | 1006.6 |
| 20260503223012 | 71 | 307 | 7.8 | 13.9 | 0.00 | 0.00 | 0.00 | 28 | 1006.7 |
| 20260503222503 | 71 | 308 | 9.6 | 14.8 | 0.00 | 0.00 | 0.00 | 28 | 1006.6 |
| 20260503222004 | 71 | 299 | 8.7 | 14.8 | 0.00 | 0.00 | 0.00 | 27 | 1006.7 |
| 20260503221516 | 72 | 301 | 7.8 | 17.4 | 0.00 | 0.00 | 0.00 | 29 | 1006.7 |
| 20260503221010 | 72 | 295 | 10.4 | 17.4 | 0.00 | 0.00 | 0.00 | 30 | 1006.6 |
| 20260503220506 | 71 | 305 | 10.4 | 13.9 | 0.00 | 0.00 | 0.00 | 27 | 1006.6 |
| 20260503220038 | 72 | 309 | 8.7 | 13.9 | 0.00 | 0.00 | 0.00 | 28 | 1006.7 |
| 20260503215509 | 71 | 314 | 9.6 | 15.6 | 0.00 | 0.00 | 0.00 | 28 | 1006.6 |
| 20260503215008 | 71 | 311 | 11.3 | 16.5 | 0.00 | 0.00 | 0.00 | 28 | 1006.6 |
| 20260503214524 | 71 | 302 | 8.7 | 17.4 | 0.00 | 0.00 | 0.00 | 29 | 1006.6 |
| 20260503214009 | 72 | 317 | 12.2 | 17.4 | 0.00 | 0.00 | 0.00 | 27 | 1006.7 |
| 20260503213514 | 72 | 320 | 11.3 | 16.5 | 0.00 | 0.00 | 0.00 | 29 | 1006.8 |
| 20260503213027 | 71 | 302 | 7.8 | 13.0 | 0.00 | 0.00 | 0.00 | 29 | 1006.9 |
| 20260503212502 | 71 | 283 | 8.7 | 14.8 | 0.00 | 0.00 | 0.00 | 28 | 1006.9 |
| 20260503212006 | 72 | 309 | 9.6 | 14.8 | 0.00 | 0.00 | 0.00 | 27 | 1006.9 |
| 20260503211512 | 71 | 342 | 8.7 | 16.5 | 0.00 | 0.00 | 0.00 | 27 | 1006.9 |
| 20260503211006 | 71 | 313 | 10.4 | 16.5 | 0.00 | 0.00 | 0.00 | 27 | 1007.0 |
| 20260503210505 | 71 | 293 | 7.0 | 13.0 | 0.00 | 0.00 | 0.00 | 30 | 1007.0 |
| 20260503210017 | 71 | 285 | 7.8 | 13.9 | 0.00 | 0.00 | 0.00 | 29 | 1006.9 |
| 20260503205507 | 72 | 307 | 8.7 | 15.6 | 0.00 | 0.00 | 0.00 | 29 | 1007.0 |
| 20260503205008 | 71 | 307 | 11.3 | 15.6 | 0.00 | 0.00 | 0.00 | 26 | 1007.1 |
| 20260503204524 | 71 | 278 | 6.1 | 17.4 | 0.00 | 0.00 | 0.00 | 30 | 1007.1 |
| 20260503204011 | 72 | 297 | 13.0 | 17.4 | 0.00 | 0.00 | 0.00 | 27 | 1007.1 |
| 20260503203511 | 72 | 9 | 13.0 | 16.5 | 0.00 | 0.00 | 0.00 | 25 | 1007.1 |
| 20260503203030 | 71 | 314 | 4.3 | 16.5 | 0.00 | 0.00 | 0.00 | 29 | 1007.1 |
| 20260503202509 | 72 | 297 | 10.4 | 16.5 | 0.00 | 0.00 | 0.00 | 28 | 1007.3 |
| 20260503202014 | 73 | 333 | 10.4 | 17.4 | 0.00 | 0.00 | 0.00 | 27 | 1007.4 |
| 20260503201528 | 72 | 300 | 10.4 | 18.2 | 0.00 | 0.00 | 0.00 | 27 | 1007.3 |
| 20260503201008 | 72 | 338 | 13.9 | 18.2 | 0.00 | 0.00 | 0.00 | 26 | 1007.4 |
| 20260503200505 | 71 | 313 | 9.6 | 14.8 | 0.00 | 0.00 | 0.00 | 28 | 1007.3 |
| 20260503200016 | 71 | 295 | 8.7 | 19.1 | 0.00 | 0.00 | 0.00 | 28 | 1007.4 |
| 20260503195506 | 72 | 321 | 13.9 | 19.1 | 0.00 | 0.00 | 0.00 | 28 | 1007.4 |
| 20260503195008 | 72 | 319 | 13.9 | 18.2 | 0.00 | 0.00 | 0.00 | 27 | 1007.5 |
| 20260503194522 | 71 | 321 | 12.2 | 20.9 | 0.00 | 0.00 | 0.00 | 29 | 1007.4 |
| 20260503194005 | 71 | 319 | 11.3 | 20.9 | 0.00 | 0.00 | 0.00 | 29 | 1007.5 |
| 20260503193511 | 71 | 318 | 9.6 | 18.2 | 0.00 | 0.00 | 0.00 | 28 | 1007.4 |
| 20260503193026 | 71 | 306 | 12.2 | 20.9 | 0.00 | 0.00 | 0.00 | 29 | 1007.4 |
| 20260503192509 | 72 | 329 | 13.9 | 20.9 | 0.00 | 0.00 | 0.00 | 28 | 1007.4 |
| 20260503192009 | 72 | 304 | 12.2 | 20.9 | 0.00 | 0.00 | 0.00 | 29 | 1007.5 |
| 20260503191527 | 71 | 331 | 11.3 | 20.9 | 0.00 | 0.00 | 0.00 | 29 | 1007.6 |
| 20260503191010 | 71 | 314 | 10.4 | 20.0 | 0.00 | 0.00 | 0.00 | 31 | 1007.5 |
| 20260503190512 | 72 | 319 | 13.0 | 20.0 | 0.00 | 0.00 | 0.00 | 28 | 1007.5 |
| 20260503190030 | 71 | 328 | 13.9 | 20.9 | 0.00 | 0.00 | 0.00 | 26 | 1007.5 |
| 20260503185506 | 71 | 321 | 13.0 | 20.9 | 0.00 | 0.00 | 0.00 | 30 | 1007.6 |
| 20260503185006 | 71 | 310 | 14.8 | 20.9 | 0.00 | 0.00 | 0.00 | 28 | 1007.6 |
| 20260503184516 | 71 | 303 | 13.0 | 21.7 | 0.00 | 0.00 | 0.00 | 28 | 1007.5 |
| 20260503184007 | 71 | 300 | 9.6 | 21.7 | 0.00 | 0.00 | 0.00 | 31 | 1007.5 |
| 20260503183509 | 71 | 319 | 14.8 | 19.1 | 0.00 | 0.00 | 0.00 | 29 | 1007.5 |
| 20260503183034 | 71 | 299 | 12.2 | 21.7 | 0.00 | 0.00 | 0.00 | 30 | 1007.6 |
| 20260503182509 | 70 | 319 | 18.2 | 21.7 | 0.00 | 0.00 | 0.00 | 29 | 1007.5 |
| 20260503182010 | 70 | 307 | 12.2 | 18.2 | 0.00 | 0.00 | 0.00 | 31 | 1007.6 |
| 20260503181527 | 70 | 297 | 9.6 | 16.5 | 0.00 | 0.00 | 0.00 | 35 | 1007.6 |
| 20260503181012 | 70 | 326 | 11.3 | 18.2 | 0.00 | 0.00 | 0.00 | 33 | 1007.6 |
| 20260503180509 | 69 | 316 | 13.0 | 18.2 | 0.00 | 0.00 | 0.00 | 34 | 1007.7 |
| 20260503180031 | 69 | 303 | 13.0 | 18.2 | 0.00 | 0.00 | 0.00 | 33 | 1007.6 |
| 20260503175509 | 69 | 291 | 10.4 | 20.0 | 0.00 | 0.00 | 0.00 | 36 | 1007.7 |
| 20260503175018 | 69 | 308 | 14.8 | 20.0 | 0.00 | 0.00 | 0.00 | 34 | 1007.7 |
| 20260503174529 | 70 | 340 | 12.2 | 22.6 | 0.00 | 0.00 | 0.00 | 35 | 1007.8 |
| 20260503174011 | 70 | 309 | 13.0 | 26.1 | 0.00 | 0.00 | 0.00 | 35 | 1007.8 |
| 20260503173503 | 70 | 337 | 16.5 | 26.1 | 0.00 | 0.00 | 0.00 | 34 | 1007.7 |
| 20260503173018 | 69 | 328 | 13.9 | 22.6 | 0.00 | 0.00 | 0.00 | 34 | 1007.8 |
| 20260503172502 | 68 | 339 | 19.1 | 22.6 | 0.00 | 0.00 | 0.00 | 33 | 1007.8 |
| 20260503172002 | 68 | 342 | 17.4 | 22.6 | 0.00 | 0.00 | 0.00 | 35 | 1007.8 |
| 20260503171502 | 68 | 347 | 18.2 | 22.6 | 0.00 | 0.00 | 0.00 | 34 | 1007.9 |
| 20260503171003 | 68 | 322 | 17.4 | 22.6 | 0.00 | 0.00 | 0.00 | 35 | 1008.0 |
| 20260503170505 | 68 | 321 | 15.6 | 26.1 | 0.00 | 0.00 | 0.00 | 38 | 1008.0 |
| 20260503151004 | 60 | 287 | 7.0 | 16.5 | 0.00 | 0.00 | 0.00 | 52 | 1007.3 |
| 20260503150503 | 60 | 311 | 9.6 | 16.5 | 0.00 | 0.00 | 0.00 | 51 | 1007.3 |
| 20260503131003 | 54 | 250 | 4.3 | 8.7 | 0.00 | 0.00 | 0.00 | 53 | 1007.3 |
| 20260503130503 | 53 | 229 | 4.3 | 8.7 | 0.00 | 0.00 | 0.00 | 54 | 1007.3 |
| 20260503110503 | 49 | 162 | 3.5 | 8.7 | 0.00 | 0.00 | 0.00 | 56 | 1007.7 |